Regional Weather Roundup
Issued by NWS Wakefield, VA

Home | Current Version | Previous Version | Graphics & Text | Print | Product List | Glossary On
Versions: 1 2 3 4 5 6 7 8 9 10 11 12 13 14 15 16 17 18 19 20 21 22 23 24 25 26 27
000
ASUS41 KAKQ 250715
RWRAKQ

REGIONAL WEATHER ROUNDUP
NATIONAL WEATHER SERVICE WAKEFIELD VA
300 AM EDT THU MAY 25 2017

Note: "fair" indicates few or no clouds below 12,000 feet with no
significant weather and/or obstructions to visibility. * = Denotes
station may not report precipitation (e.g., rain,snow,etc.),
thunder or fog.

VAZ042-051-052>054-056-250800-
NORTHERN VIRGINIA

CITY           SKY/WX    TMP DP  RH WIND       PRES   REMARKS
WASH NATIONAL  LGT RAIN  58  57  97 E8G20     29.59F
DULLES         LGT RAIN  56  54  93 E16       29.56F
FORT BELVOIR   LGT RAIN  57  55  93 CALM      29.57F
QUANTICO       LGT RAIN  59  58  96 E8        29.57F
FREDERICKSBRG* RAIN      59  59 100 E8        29.54F
STAFFORD*      RAIN      57  57 100 E9G17     29.60F
WARRENTON      LGT RAIN  58  55  89 E7        29.54F
CULPEPER*      HVY RAIN  57  57  99 E3        29.56F
MANASSAS*      LGT RAIN  57  56  96 E12       29.56F
LEESBURG*      LGT RAIN  57  57 100 SE10G21   29.57F
WINCHESTER     LGT RAIN  54  52  94 E7        29.56F
FRONT ROYAL*   CLOUDY    55  55 100 CALM      29.55F
LURAY*         RAIN      55  55 100 NE9       29.53F
$$

VAZ048-049-060>072-079>083-250800-
CENTRAL AND SOUTH CENTRAL VIRGINIA

CITY           SKY/WX    TMP DP  RH WIND       PRES   REMARKS
RICHMOND       LGT RAIN  59  59 100 E10       29.51F FOG
CHESTERFIELD*  NOT AVBL
PETERSBURG*    LGT RAIN  61  60  97 E5        29.50F
HANOVER        LGT RAIN  59  58  96 E7        29.53F
TAPPAHANNOCK*  DRIZZLE   60  60 100 E9        29.56F
QUINTON*       CLOUDY    59  59 100 E8        29.52F
CHARLOTTSVILLE LGT RAIN  59  58  96 NE9       29.51F
GORDONSVILLE*  CLOUDY    58  58 100 E3        29.52F
ORANGE*        RAIN      55  55 100 CALM      29.52F
LOUISA*        RAIN      61  61 100 E6        29.51F
BUMPASS*       CLOUDY    57  57 100 S6        29.53F
FARMVILLE*     CLOUDY    61  58  90 E8        29.47F
CREWE*         CLOUDY    60  56  87 CALM      29.49F
FORT PICKETT*  CLOUDY    60  56  88 SE5       29.49F
CHASE CITY*    CLOUDY    63  61  94 SE5       29.46F
CLARKSVILLE*   CLOUDY    66  66 100 S3        29.46F
SOUTH HILL*    CLOUDY    62  62 100 CALM      29.54F
LAWRENCEVILLE* CLOUDY    62  61  97 SE3       29.49F
EMPORIA*       RAIN      63  63 100 SE5       29.50F
$$

VAZ088>098-250800-
SOUTHEAST VIRGINIA

CITY           SKY/WX    TMP DP  RH WIND       PRES   REMARKS
NORFOLK        CLOUDY    66  66 100 SE9       29.53F
VIRGINIA BEACH CLOUDY    66  64  93 SE7       29.53F
NORFOLK NAVAL  CLOUDY    68  65  90 SE6       29.54F
WEST POINT*    CLOUDY    60  59  97 E7        29.55F
SALUDA*        CLOUDY    62  62 100 SE5       29.55F
NEWPORT NEWS   LGT RAIN  64  63  96 E5        29.52F
LANGLEY AFB    CLOUDY    66  66 100 SE7       29.52F
FORT EUSTIS    LGT RAIN  63  62  96 E6        29.50F FOG
WILLIAMSBURG*  CLOUDY    64  64 100 CALM      29.53F
HR EXEC AP*    CLOUDY    66  64  94 SE7       29.51F
FRANKLIN*      RAIN      64  64  97 SE3       29.52F
US460-WAKEFLD  LGT RAIN  63  63 100 E3        29.51F FOG
$$

VAZ020-022-025-037-045-250800-
WEST CENTRAL AND SOUTHWEST VIRGINIA

CITY           SKY/WX    TMP DP  RH WIND       PRES   REMARKS
STAUNTON*      DRIZZLE   56  55  97 N3        29.52F
WAYNESBORO*    CLOUDY    56  56 100 NE5       29.50F
HOT SPRINGS VA LGT RAIN  43  41  93 NW5       29.54F VSB 1/4
LYNCHBURG      LGT RAIN  60  59  96 SW9       29.49F
DANVILLE       LGT RAIN  64  64 100 SW7       29.47F
SOUTH BOSTON*  CLOUDY    62  61  96 CALM      29.46F
MARTINSVILLE   RAIN      58  58  97 CALM      29.51S
ROANOKE        CLOUDY    59  59 100 NE7       29.49F
BLACKSBURG     LGT RAIN  57  56  96 SW3       29.55F
DUBLIN*        CLOUDY    57  55  92 CALM      29.52F FOG
MARION*        CLOUDY    57  54  90 W7        29.55F
HILLSVILLE*    MOCLDY    55  51  86 CALM      29.52F FOG
RICHLANDS*     CLOUDY    54  53  97 SW8       29.53F
WISE*          MOCLDY    50  50 100 SW5       29.56S
ABINGDON*      CLOUDY    57  55  92 W8        29.55F
$$

MDZ021>025-VAZ099-100-250800-
SOUTHERN MARYLAND AND THE DELMARVA PENINSULA

CITY           SKY/WX    TMP DP  RH WIND       PRES   REMARKS
PATUXENT RIVER LGT RAIN  58  58 100 E17       29.59F
BAY BRIDGE APT LGT RAIN  55  55 100 E9G20     29.61F
LEONARDTOWN    CLOUDY    55  54  94 E7        29.60F
DOVER          LGT RAIN  56  56 100 E13G21    29.63F
GEORGETOWN     RAIN      57  55  93 E10       29.64F FOG
EASTON         LGT RAIN  56  54  92 E14       29.64F
CAMBRIDGE      CLOUDY    55  55 100 E14G20    29.60F FOG
SALISBURY      LGT RAIN  56  56 100 E8        29.61F
OCEAN CITY     LGT RAIN  57  56  96 E12G22    29.63F
WALLOPS ISLAND LGT RAIN  58  58 100 E13       29.60F
ACCOMACK*      DRIZZLE   60  14  16 E7G16     29.58F
$$

NCZ012>017-030>032-250800-
NORTH CENTRAL AND EASTERN NORTH CAROLINA

CITY           SKY/WX    TMP DP  RH WIND       PRES   REMARKS
ROANOKE RAPIDS DRIZZLE   66  66 100 CALM      29.49F
RALEIGH        CLOUDY    69  67  93 SW9       29.49F
ELIZABETH CITY CLOUDY    71  70  96 S12G20    29.55S
AHOSKIE*         N/A     67  67  98 SE6       29.52F
EDENTON*       CLOUDY    73  70  89 S13G18    29.55S
CURRITUCK*     CLOUDY   N/A N/A N/A S6        29.56S
KILL DEVIL HLS CLOUDY    69  69 100 SE10G16   29.56S
MANTEO         CLOUDY    71  68  91 S15G21    29.58R
CAPE HATTERAS  NOT AVBL
TARBORO*       NOT AVBL
GOLDSBORO      CLOUDY    71  71 100 S9        29.49F
WASHINGTON     LGT RAIN  70  69  96 S9        29.54S
GREENVILLE     RAIN      72  70  94 S9        29.56F
NEW BERN       LGT RAIN  73  70  90 S10G20    29.53F
WILMINGTON     CLOUDY    74  70  87 SW13      29.53S
$$

VAZ048-250800-
ELSEWHERE

CITY           SKY/WX    TMP DP  RH WIND       PRES   REMARKS
HARRISBURG PA  LGT RAIN  57  55  93 E10       29.64F
BALTIMORE      LGT RAIN  57  56  96 E16       29.61F
ANNAPOLIS      LGT RAIN  59  59 100 MISG      29.61F FOG
ANDREWS AFB    LGT RAIN  56  54  95 E15       29.57F
PHILADELPHIA   LGT RAIN  57  53  86 E13       29.71F
HENDERSON NC   LGT RAIN  64  64  97 S8        29.47F
GREENSBORO     LGT RAIN  60  60 100 SW6       29.51R
ROCKY MOUNT    CLOUDY    70  69  97 S10       29.49F
$$

VAZ100-250800-
MARINE

STATION/POSITION TIME  TEMP    WIND        PRES    WAVE   SWELL
                       AIR SEA DIR/SP/G            HT/PER HT/PER
                 (UTC) (F)     (DEG/KT/KT) (MB)    (FT/S) (FT/S)
CAPE MAY NJ      0648   55 60   70/ 11/ 16 1003.8F
LEWES DE         0648   56 62  100/ 17/ 23 1004.0F
15NM E FENWICK I 0550   56 56   50/ 16/ 19 1005.6    5/ 7   2/ 8
WACHAPREAGUE VA  0648   61 64   60/ 11/ 14 1001.1F
THOMAS POINT MD  0700   57 64   90/ 13/ 15   N/A
GOOSES REEF MD   0650   58     140/ 14/ 17 1003.3F
COVE POINT MD    0648   57     140/  9/ 11 1003.0F
SOLOMONS ISLAND  0648          100/ 17/ 20   N/A
BISHOPS HEAD MD  0648   59 63   90/ 18/ 24 1001.9F
PINEY POINT MD   0648          120/ 18/ 20   N/A
POTOMAC MD       0650   60     110/ 16/ 17 1001.0F
CAMBRIDGE MD     0642   58 67                N/A
LEWISETTA VA     0648   61 66  120/ 20/ 23 1001.1F
RAPPAHANNOCK LGT 0648          100/ 16/ 17 1001.4F
STINGRAY PT      0650   64     140/ 17/ 23 1000.4F
YORK RVR RNG VA  0648   66     130/ 18/ 20  999.2F
YORKTOWN VA      0648   65 68  120/  8/  9  999.5F
JAMESTOWN VA     0650   64      80/ 10/ 14   N/A
DOMINION TERM VA 0648   66      80/  1/  5  999.7F
KIPTOPEKE VA     0648      65  140/ 16/ 20   N/A
CHES BAY BRIDGE  0648   66 66  160/ 10/ 12  999.8F
CAPE HENRY VA    0648   65     150/ 12/ 18   N/A
WILLOUBY STN VA  0648   67     140/ 11/ 12  999.5F
S CRANEY ISL VA  0648   67     140/  9/ 11  999.6F
CAPE HENRY BUOY  0642      62                N/A     5/ 4
1ST LANDING BUOY 0650   66                 1000.4F
CAPE CHARLES BUO 0651      61                N/A     4/ 5
64NM E OF VA BCH 0650   69 64  150/ 17/ 19 1001.6F   5/ 5   2/11
DUCK PIER NC     0648   68 65  150/ 11/ 13 1000.7S
44100 DUCK FRF   0635      62                N/A     5/ 8
44056 DUCK FRF   0630      65                N/A     4/ 4
OREGON INLET NC  0648          150/ 11/ 15   N/A
HATTERAS NC      0648   74 74  160/ 13/ 20 1001.3F
DIAMOND SHLS NC  0650   76 74  180/ 23/ 27 1001.5F   6/ 8   3/ 8
CAPE LOOKOUT NC  0600   74     170/ 23/ 28 1001.3F
$$




USA.gov is the U.S. government's official web portal to all federal, state and local government web resources and services.